TimeEDT,TemperatureF,Dew PointF,Humidity,Sea Level PressureIn,VisibilityMPH,Wind Direction,Wind SpeedMPH,Gust SpeedMPH,PrecipitationIn,Events,Conditions,WindDirDegrees,DateUTC
12:15 AM,42.8,33.8,70,29.93,10.0,South,13.8,-,N/A,,Overcast,190,2013-04-08 04:15:00
12:35 AM,42.8,33.8,70,29.93,10.0,South,12.7,-,N/A,,Overcast,190,2013-04-08 04:35:00
12:55 AM,44.6,33.8,66,29.93,10.0,South,11.5,-,N/A,,Overcast,190,2013-04-08 04:55:00
1:15 AM,42.8,33.8,70,29.92,10.0,South,10.4,-,N/A,,Overcast,190,2013-04-08 05:15:00
1:35 AM,42.8,33.8,70,29.91,10.0,South,9.2,-,N/A,,Overcast,190,2013-04-08 05:35:00
1:55 AM,42.8,33.8,70,29.91,10.0,SSW,5.8,-,N/A,,Mostly Cloudy,210,2013-04-08 05:55:00
2:15 AM,41.0,33.8,76,29.90,10.0,South,6.9,-,N/A,,Partly Cloudy,190,2013-04-08 06:15:00
2:35 AM,41.0,33.8,76,29.90,10.0,South,5.8,-,N/A,,Clear,180,2013-04-08 06:35:00
2:55 AM,41.0,33.8,76,29.89,10.0,South,3.5,-,N/A,,Clear,170,2013-04-08 06:55:00
3:15 AM,39.2,33.8,81,29.89,10.0,South,5.8,-,N/A,,Clear,170,2013-04-08 07:15:00
3:35 AM,39.2,33.8,81,29.88,10.0,South,9.2,-,N/A,,Clear,180,2013-04-08 07:35:00
3:55 AM,39.2,33.8,81,29.89,10.0,South,5.8,-,N/A,,Clear,180,2013-04-08 07:55:00
4:15 AM,39.2,33.8,81,29.88,10.0,Calm,Calm,-,N/A,,Clear,0,2013-04-08 08:15:00
4:35 AM,39.2,33.8,81,29.89,10.0,Calm,Calm,-,N/A,,Clear,0,2013-04-08 08:35:00
4:55 AM,35.6,32.0,87,29.89,10.0,Calm,Calm,-,N/A,,Clear,0,2013-04-08 08:55:00
5:15 AM,35.6,33.8,93,29.90,10.0,NNE,4.6,-,N/A,,Clear,20,2013-04-08 09:15:00
5:35 AM,35.6,32.0,87,29.91,10.0,North,6.9,-,N/A,,Clear,360,2013-04-08 09:35:00
5:55 AM,33.8,32.0,93,29.92,10.0,Calm,Calm,-,N/A,,Clear,0,2013-04-08 09:55:00
6:15 AM,35.6,33.8,93,29.93,10.0,Calm,Calm,-,N/A,,Clear,0,2013-04-08 10:15:00
6:35 AM,32.0,28.4,87,29.95,10.0,Calm,Calm,-,N/A,,Partly Cloudy,0,2013-04-08 10:35:00
6:55 AM,33.8,32.0,93,29.96,10.0,Calm,Calm,-,N/A,,Mostly Cloudy,0,2013-04-08 10:55:00
7:35 AM,37.4,33.8,87,29.97,10.0,Calm,Calm,-,N/A,,Partly Cloudy,0,2013-04-08 11:35:00
7:55 AM,39.2,35.6,87,29.97,10.0,NW,5.8,-,N/A,,Clear,320,2013-04-08 11:55:00
8:15 AM,44.6,35.6,71,29.98,10.0,NNW,9.2,-,N/A,,Clear,340,2013-04-08 12:15:00
8:35 AM,48.2,33.8,58,29.98,10.0,NNW,11.5,-,N/A,,Partly Cloudy,330,2013-04-08 12:35:00
8:55 AM,48.2,30.2,50,29.99,10.0,NNW,16.1,21.9,N/A,,Scattered Clouds,330,2013-04-08 12:55:00
9:15 AM,48.2,30.2,50,30.00,10.0,NNW,15.0,21.9,N/A,,Mostly Cloudy,330,2013-04-08 13:15:00
9:35 AM,48.2,30.2,50,30.00,10.0,North,16.1,24.2,N/A,,Scattered Clouds,360,2013-04-08 13:35:00
9:55 AM,50.0,30.2,47,30.00,10.0,NW,16.1,20.7,N/A,,Clear,320,2013-04-08 13:55:00
10:15 AM,50.0,30.2,47,30.02,10.0,NW,12.7,19.6,N/A,,Clear,320,2013-04-08 14:15:00
10:35 AM,50.0,30.2,47,30.03,10.0,North,16.1,21.9,N/A,,Clear,360,2013-04-08 14:35:00
10:55 AM,50.0,30.2,47,-9999,10.0,NW,12.7,20.7,N/A,,Clear,310,2013-04-08 14:55:00
11:15 AM,50.0,30.2,47,30.04,10.0,NNW,15.0,20.7,N/A,,Clear,330,2013-04-08 15:15:00
11:35 AM,51.8,30.2,44,30.04,10.0,NNW,12.7,-,N/A,,Clear,340,2013-04-08 15:35:00
11:55 AM,51.8,30.2,44,30.05,10.0,NNW,16.1,-,N/A,,Clear,330,2013-04-08 15:55:00
12:15 PM,51.8,30.2,44,30.05,10.0,NNW,9.2,-,N/A,,Clear,330,2013-04-08 16:15:00
12:35 PM,53.6,28.4,38,30.04,10.0,NNW,13.8,18.4,N/A,,Clear,330,2013-04-08 16:35:00
12:55 PM,53.6,28.4,38,30.05,10.0,NNW,10.4,21.9,N/A,,Clear,330,2013-04-08 16:55:00
1:15 PM,53.6,28.4,38,30.06,10.0,NNW,10.4,18.4,N/A,,Clear,340,2013-04-08 17:15:00
1:35 PM,53.6,28.4,38,30.06,10.0,NW,13.8,-,N/A,,Clear,320,2013-04-08 17:35:00
1:55 PM,53.6,28.4,38,30.06,10.0,NNW,13.8,18.4,N/A,,Clear,340,2013-04-08 17:55:00
2:15 PM,55.4,28.4,36,30.08,10.0,North,10.4,-,N/A,,Clear,360,2013-04-08 18:15:00
2:35 PM,53.6,30.2,41,30.05,10.0,North,13.8,19.6,N/A,,Clear,360,2013-04-08 18:35:00
2:55 PM,55.4,30.2,38,30.05,10.0,North,6.9,16.1,N/A,,Clear,10,2013-04-08 18:55:00
3:15 PM,55.4,30.2,38,30.05,10.0,NNE,13.8,-,N/A,,Clear,30,2013-04-08 19:15:00
3:35 PM,55.4,30.2,38,30.06,10.0,NNE,6.9,-,N/A,,Clear,30,2013-04-08 19:35:00
3:55 PM,55.4,28.4,36,30.05,10.0,North,11.5,-,N/A,,Clear,10,2013-04-08 19:55:00
4:15 PM,53.6,28.4,38,30.05,10.0,North,5.8,-,N/A,,Clear,10,2013-04-08 20:15:00
4:35 PM,55.4,28.4,36,30.06,10.0,NE,3.5,-,N/A,,Clear,50,2013-04-08 20:35:00
5:15 PM,55.4,26.6,33,30.07,10.0,North,6.9,-,N/A,,Clear,10,2013-04-08 21:15:00
5:35 PM,55.4,26.6,33,30.06,10.0,NE,8.1,-,N/A,,Clear,40,2013-04-08 21:35:00
5:55 PM,55.4,26.6,33,30.06,10.0,NNE,8.1,-,N/A,,Clear,20,2013-04-08 21:55:00
6:15 PM,53.6,26.6,35,30.06,10.0,NE,11.5,-,N/A,,Clear,40,2013-04-08 22:15:00
6:55 PM,51.8,26.6,38,30.07,10.0,NNE,6.9,-,N/A,,Clear,30,2013-04-08 22:55:00
7:15 PM,51.8,26.6,38,30.07,10.0,NE,8.1,-,N/A,,Clear,40,2013-04-08 23:15:00
7:35 PM,50.0,26.6,40,30.08,10.0,NE,4.6,-,N/A,,Clear,40,2013-04-08 23:35:00
7:55 PM,48.2,26.6,43,30.09,10.0,Calm,Calm,-,N/A,,Clear,0,2013-04-08 23:55:00
8:15 PM,44.6,26.6,49,30.10,10.0,Calm,Calm,-,N/A,,Clear,0,2013-04-09 00:15:00
8:35 PM,44.6,26.6,49,30.11,10.0,Calm,Calm,-,N/A,,Clear,0,2013-04-09 00:35:00
8:55 PM,41.0,26.6,57,30.11,10.0,SSE,4.6,-,N/A,,Clear,150,2013-04-09 00:55:00
9:15 PM,42.8,26.6,53,30.12,10.0,Calm,Calm,-,N/A,,Clear,0,2013-04-09 01:15:00
9:35 PM,39.2,28.4,65,30.13,10.0,Calm,Calm,-,N/A,,Clear,0,2013-04-09 01:35:00
9:55 PM,39.2,28.4,65,30.13,10.0,Calm,Calm,-,N/A,,Clear,0,2013-04-09 01:55:00
10:15 PM,39.2,28.4,65,30.13,10.0,Calm,Calm,-,N/A,,Clear,0,2013-04-09 02:15:00
10:35 PM,39.2,28.4,65,30.13,10.0,Calm,Calm,-,N/A,,Clear,0,2013-04-09 02:35:00
10:55 PM,39.2,28.4,65,30.12,10.0,Calm,Calm,-,N/A,,Clear,0,2013-04-09 02:55:00
11:15 PM,39.2,28.4,65,30.11,10.0,NNE,5.8,-,N/A,,Clear,30,2013-04-09 03:15:00
11:35 PM,37.4,28.4,70,30.11,10.0,Calm,Calm,-,N/A,,Clear,0,2013-04-09 03:35:00
11:55 PM,35.6,28.4,75,30.12,10.0,Calm,Calm,-,N/A,,Clear,0,2013-04-09 03:55:00